Location: Unspecified
(0.0000°N, 0.0000°E)
Time: 15:40:37
(UTC+00:00)

Hubble Space Telescope - Visible Passes

Search period start: 14 May 2021 00:00
Search period end: 24 May 2021 00:00
Orbit: 535 x 539 km, 28.5° (Epoch: 14 May)

Date Brightness Start Highest point End Pass type
(mag) Time Alt. Az. Time Alt. Az. Time Alt. Az.
14 May 1.2 04:33:08 41° WNW 04:33:47 46° NNW 04:37:44 10° NE visible
15 May 1.8 04:22:57 32° NNW 04:22:57 32° NNW 04:26:35 10° NE visible
16 May 2.5 04:12:43 22° NNW 04:12:43 22° NNW 04:15:18 10° NNE visible
17 May 3.1 04:02:26 15° N 04:02:26 15° N 04:03:52 10° NNE visible
18 May 3.6 03:52:07 10° N 03:52:07 10° N 03:52:09 10° N visible
